| time (UTC) | temp C | wind direction | speed KPH | gust KPH | rain 1hr cm | rain 24hr cm | rain mn cm | humidity % | barometer mb |
| 20260504184202 | 21 | 246 | 11.3 | 17.7 | 0.00 | 0.00 | 0.00 | 52 | 1004.0 |
| 20260504183202 | 21 | 240 | 9.7 | 22.5 | 0.00 | 0.00 | 0.00 | 52 | 1004.2 |
| 20260504182202 | 21 | 213 | 6.4 | 14.5 | 0.00 | 0.00 | 0.00 | 54 | 1004.3 |
| 20260504181202 | 20 | 234 | 6.4 | 17.7 | 0.00 | 0.00 | 0.00 | 54 | 1004.5 |
| 20260504180202 | 20 | 226 | 9.7 | 24.1 | 0.00 | 0.00 | 0.00 | 55 | 1004.6 |
| 20260504175202 | 20 | 236 | 8.0 | 24.1 | 0.00 | 0.00 | 0.00 | 53 | 1004.8 |
| 20260504174202 | 20 | 215 | 8.0 | 14.5 | 0.00 | 0.00 | 0.00 | 56 | 1004.9 |
| 20260504173202 | 19 | 252 | 6.4 | 32.2 | 0.00 | 0.00 | 0.00 | 57 | 1005.0 |
| 20260504172202 | 18 | 224 | 4.8 | 25.7 | 0.00 | 0.00 | 0.00 | 56 | 1005.1 |
| 20260504171202 | 18 | 247 | 9.7 | 17.7 | 0.00 | 0.00 | 0.00 | 57 | 1005.2 |
| 20260504170202 | 18 | 241 | 6.4 | 25.7 | 0.00 | 0.00 | 0.00 | 59 | 1005.2 |
| 20260504160202 | 17 | 229 | 8.0 | 22.5 | 0.00 | 0.00 | 0.00 | 58 | 1006.0 |
| 20260504150203 | 16 | 227 | 11.3 | 24.1 | 0.00 | 0.00 | 0.00 | 58 | 1006.2 |
| 20260504141203 | 15 | 232 | 9.7 | 25.7 | 0.00 | 0.00 | 0.00 | 59 | 1006.0 |
| 20260504140224 | 15 | 221 | 9.7 | 24.1 | 0.00 | 0.00 | 0.00 | 59 | 1006.1 |
| 20260504130202 | 13 | 212 | 4.8 | 22.5 | 0.00 | 0.00 | 0.00 | 61 | 1006.5 |
| 20260504120203 | 12 | 200 | 4.8 | 14.5 | 0.00 | 0.00 | 0.00 | 63 | 1006.4 |
| 20260504110202 | 10 | 217 | 3.2 | 6.4 | 0.00 | 0.00 | 0.00 | 67 | 1006.7 |
| 20260504100202 | 10 | 258 | 1.6 | 4.8 | 0.00 | 0.00 | 0.00 | 65 | 1006.5 |
| 20260504081223 | 8 | 247 | 1.6 | 9.7 | 0.00 | 0.00 | 0.00 | 74 | 1007.4 |
| 20260504080202 | 8 | 199 | 3.2 | 6.4 | 0.00 | 0.00 | 0.00 | 77 | 1007.4 |
| 20260504070204 | 9 | 215 | 4.8 | 9.7 | 0.00 | 0.00 | 0.00 | 76 | 1008.1 |
| 20260504060202 | 10 | 173 | 4.8 | 12.9 | 0.00 | 0.00 | 0.00 | 73 | 1008.6 |
| 20260504050202 | 10 | 240 | 8.0 | 30.6 | 0.00 | 0.00 | 0.00 | 69 | 1009.0 |
| 20260504045202 | 10 | 234 | 4.8 | 22.5 | 0.00 | 0.00 | 0.00 | 68 | 1009.1 |
| 20260504044225 | 10 | 270 | 6.4 | 16.1 | 0.00 | 0.00 | 0.00 | 66 | 1009.1 |
| 20260504043202 | 10 | 265 | 8.0 | 19.3 | 0.00 | 0.00 | 0.00 | 65 | 1009.2 |
| 20260504042201 | 10 | 263 | 8.0 | 27.4 | 0.00 | 0.00 | 0.00 | 64 | 1009.1 |
| 20260504041202 | 10 | 264 | 4.8 | 24.1 | 0.00 | 0.00 | 0.00 | 62 | 1009.1 |
| 20260504040202 | 11 | 261 | 4.8 | 14.5 | 0.00 | 0.00 | 0.00 | 61 | 1009.0 |
| 20260504035202 | 11 | 281 | 11.3 | 30.6 | 0.00 | 0.00 | 0.00 | 60 | 1009.0 |
| 20260504034202 | 11 | 257 | 4.8 | 12.9 | 0.00 | 0.00 | 0.00 | 60 | 1008.9 |
| 20260504033202 | 11 | 263 | 4.8 | 12.9 | 0.00 | 0.00 | 0.00 | 59 | 1009.0 |
| 20260504032202 | 12 | 235 | 8.0 | 20.9 | 0.00 | 0.00 | 0.00 | 57 | 1009.1 |
| 20260504031202 | 12 | 242 | 6.4 | 16.1 | 0.00 | 0.00 | 0.00 | 57 | 1009.1 |
| 20260504030201 | 12 | 268 | 8.0 | 19.3 | 0.00 | 0.00 | 0.00 | 56 | 1009.1 |
| 20260504025224 | 12 | 245 | 6.4 | 27.4 | 0.00 | 0.00 | 0.00 | 56 | 1009.1 |
| 20260504024202 | 12 | 274 | 9.7 | 22.5 | 0.00 | 0.00 | 0.00 | 56 | 1009.1 |
| 20260504023203 | 12 | 262 | 9.7 | 25.7 | 0.00 | 0.00 | 0.00 | 56 | 1009.2 |
| 20260504022223 | 11 | 260 | 9.7 | 24.1 | 0.00 | 0.00 | 0.00 | 57 | 1009.1 |
| 20260504021202 | 11 | 233 | 1.6 | 19.3 | 0.00 | 0.00 | 0.00 | 60 | 1009.2 |
| 20260504020202 | 11 | 231 | 3.2 | 22.5 | 0.00 | 0.00 | 0.00 | 60 | 1009.3 |
| 20260504015204 | 11 | 242 | 4.8 | 19.3 | 0.00 | 0.00 | 0.00 | 59 | 1009.3 |
| 20260504014225 | 11 | 215 | 4.8 | 14.5 | 0.00 | 0.00 | 0.00 | 59 | 1009.2 |
| 20260504013202 | 11 | 256 | 6.4 | 19.3 | 0.00 | 0.00 | 0.00 | 60 | 1009.2 |
| 20260504012203 | 11 | 266 | 8.0 | 29.0 | 0.00 | 0.00 | 0.00 | 59 | 1009.3 |
| 20260504011202 | 11 | 228 | 8.0 | 32.2 | 0.00 | 0.00 | 0.00 | 58 | 1009.3 |
| 20260504010202 | 11 | 219 | 6.4 | 25.7 | 0.00 | 0.00 | 0.00 | 58 | 1009.3 |
| 20260504005202 | 11 | 251 | 4.8 | 30.6 | 0.00 | 0.00 | 0.00 | 60 | 1009.2 |
| 20260504004202 | 11 | 278 | 8.0 | 25.7 | 0.00 | 0.00 | 0.00 | 60 | 1009.2 |
| 20260504003202 | 11 | 277 | 6.4 | 22.5 | 0.00 | 0.00 | 0.00 | 60 | 1009.2 |
| 20260504002202 | 11 | 257 | 6.4 | 19.3 | 0.00 | 0.00 | 0.00 | 62 | 1009.2 |
| 20260504000223 | 11 | 233 | 4.8 | 14.5 | 0.00 | 0.00 | 0.00 | 61 | 1009.3 |
| 20260503235202 | 11 | 261 | 3.2 | 14.5 | 0.00 | 0.00 | 0.00 | 61 | 1009.4 |
| 20260503234202 | 11 | 246 | 4.8 | 19.3 | 0.00 | 0.00 | 0.00 | 62 | 1009.4 |
| 20260503233202 | 11 | 255 | 4.8 | 16.1 | 0.00 | 0.00 | 0.00 | 62 | 1009.5 |
| 20260503232202 | 11 | 270 | 8.0 | 25.7 | 0.00 | 0.00 | 0.00 | 64 | 1009.5 |
| 20260503231202 | 11 | 286 | 6.4 | 17.7 | 0.00 | 0.00 | 0.00 | 66 | 1009.7 |
| 20260503230202 | 11 | 288 | 8.0 | 14.5 | 0.00 | 0.00 | 0.00 | 66 | 1009.8 |
| 20260503225224 | 11 | 284 | 8.0 | 24.1 | 0.00 | 0.00 | 0.00 | 65 | 1009.8 |
| 20260503224202 | 11 | 268 | 6.4 | 17.7 | 0.00 | 0.00 | 0.00 | 65 | 1009.8 |
| 20260503223204 | 11 | 288 | 9.7 | 19.3 | 0.00 | 0.00 | 0.00 | 63 | 1009.9 |
| 20260503222223 | 11 | 270 | 11.3 | 25.7 | 0.00 | 0.00 | 0.00 | 64 | 1009.8 |
| 20260503221202 | 11 | 264 | 9.7 | 22.5 | 0.00 | 0.00 | 0.00 | 66 | 1009.9 |
| 20260503220201 | 11 | 282 | 11.3 | 29.0 | 0.00 | 0.00 | 0.00 | 65 | 1009.8 |
| 20260503215202 | 11 | 260 | 12.9 | 25.7 | 0.00 | 0.00 | 0.00 | 65 | 1009.7 |
| 20260503214202 | 11 | 264 | 8.0 | 33.8 | 0.00 | 0.00 | 0.00 | 65 | 1009.6 |
| 20260503213202 | 11 | 270 | 6.4 | 19.3 | 0.00 | 0.00 | 0.00 | 65 | 1009.5 |
| 20260503211203 | 11 | 271 | 9.7 | 29.0 | 0.00 | 0.00 | 0.00 | 65 | 1009.4 |
| 20260503210202 | 10 | 258 | 6.4 | 24.1 | 0.00 | 0.00 | 0.00 | 65 | 1009.5 |
| 20260503205201 | 10 | 244 | 6.4 | 24.1 | 0.00 | 0.00 | 0.00 | 64 | 1009.7 |
| 20260503203203 | 11 | 219 | 6.4 | 20.9 | 0.00 | 0.00 | 0.00 | 63 | 1009.8 |
| 20260503202202 | 11 | 270 | 8.0 | 33.8 | 0.00 | 0.00 | 0.00 | 63 | 1009.9 |
| 20260503201203 | 11 | 237 | 6.4 | 24.1 | 0.00 | 0.00 | 0.00 | 62 | 1010.0 |
| 20260503200204 | 11 | 263 | 9.7 | 20.9 | 0.00 | 0.00 | 0.00 | 61 | 1010.2 |
| 20260503195205 | 12 | 245 | 8.0 | 30.6 | 0.00 | 0.00 | 0.00 | 61 | 1010.4 |
| 20260503194202 | 12 | 218 | 6.4 | 20.9 | 0.00 | 0.00 | 0.00 | 60 | 1010.4 |
| 20260503193223 | 12 | 256 | 9.7 | 25.7 | 0.00 | 0.00 | 0.00 | 60 | 1010.6 |
| 20260503192203 | 11 | 269 | 9.7 | 24.1 | 0.00 | 0.00 | 0.00 | 60 | 1010.9 |
| 20260503191202 | 11 | 241 | 9.7 | 27.4 | 0.00 | 0.00 | 0.00 | 59 | 1011.0 |
| 20260503190203 | 11 | 281 | 14.5 | 30.6 | 0.00 | 0.00 | 0.00 | 58 | 1011.1 |
| 20260503185203 | 12 | 253 | 9.7 | 37.0 | 0.00 | 0.00 | 0.00 | 56 | 1011.2 |